When you browse on this site, cookies collect data to enhance your experience and personalize the content and advertising you see.
Visit our Privacy Policy to learn more. By continuing to use the site, you agree to this use of cookies and data.
  • In Portugal
  • List of Countries
  • For 7 days
  • Water Temperature
  • Satellite Maps
  • Weather Map
  • Weather Widgets
  • user-avatar
    Login

    Hourly Weather Mansa Konko

    Today, 18 February, Monday

    Time Temperature Precipitation Wind Pressure Humidity
    00:00 +28°C° 0 mm 4 mps 758 mmHg 18%
    01:00 +27°C° 0 mm 4 mps 758 mmHg 22%
    02:00 +26°C° 0 mm 4 mps 758 mmHg 26%
    03:00 +25°C° 0 mm 3 mps 758 mmHg 29%
    04:00 +24°C° 0 mm 3 mps 758 mmHg 32%
    05:00 +23°C° 0 mm 2 mps 758 mmHg 36%
    06:00 +24°C° 0 mm 2 mps 758 mmHg 34%
    07:00 +24°C° 0 mm 2 mps 759 mmHg 33%
    08:00 +25°C° 0 mm 3 mps 759 mmHg 32%
    09:00 +28°C° 0 mm 3 mps 759 mmHg 25%
    10:00 +31°C° 0 mm 3 mps 759 mmHg 19%
    11:00 +35°C° 0 mm 3 mps 759 mmHg 13%
    12:00 +37°C° 0 mm 3 mps 758 mmHg 11%
    13:00 +38°C° 0 mm 3 mps 757 mmHg 10%
    14:00 +39°C° 0 mm 3 mps 756 mmHg 8%
    15:00 +39°C° 0 mm 3 mps 756 mmHg 8%
    16:00 +39°C° 0 mm 3 mps 756 mmHg 8%
    17:00 +39°C° 0 mm 3 mps 755 mmHg 8%
    18:00 +37°C° 0 mm 3 mps 756 mmHg 12%
    19:00 +34°C° 0 mm 3 mps 757 mmHg 15%
    20:00 +31°C° 0 mm 3 mps 757 mmHg 19%
    21:00 +30°C° 0 mm 3 mps 757 mmHg 21%
    22:00 +29°C° 0 mm 3 mps 758 mmHg 23%
    23:00 +28°C° 0 mm 3 mps 758 mmHg 26%

    Tomorrow, 19 February, Tuesday

    Time Temperature Precipitation Wind Pressure Humidity
    00:00 +27°C° 0 mm 3 mps 758 mmHg 25%
    01:00 +26°C° 0 mm 3 mps 757 mmHg 24%
    02:00 +25°C° 0 mm 3 mps 757 mmHg 23%
    03:00 +25°C° 0 mm 3 mps 757 mmHg 23%
    04:00 +25°C° 0 mm 3 mps 757 mmHg 24%
    05:00 +24°C° 0 mm 3 mps 757 mmHg 25%
    06:00 +25°C° 0 mm 3 mps 758 mmHg 24%
    07:00 +26°C° 0 mm 3 mps 758 mmHg 23%
    08:00 +26°C° 0 mm 3 mps 758 mmHg 22%
    09:00 +29°C° 0 mm 3 mps 758 mmHg 18%
    10:00 +31°C° 0 mm 3 mps 758 mmHg 15%
    11:00 +35°C° 0 mm 3 mps 758 mmHg 12%
    12:00 +36°C° 0 mm 3 mps 757 mmHg 10%
    13:00 +38°C° 0 mm 3 mps 757 mmHg 9%
    14:00 +39°C° 0 mm 2 mps 756 mmHg 7%
    15:00 +39°C° 0 mm 3 mps 755 mmHg 8%
    16:00 +38°C° 0 mm 3 mps 755 mmHg 9%
    17:00 +38°C° 0 mm 3 mps 755 mmHg 9%
    18:00 +37°C° 0 mm 3 mps 755 mmHg 10%
    19:00 +35°C° 0 mm 3 mps 756 mmHg 10%
    20:00 +33°C° 0 mm 3 mps 757 mmHg 11%
    21:00 +31°C° 0 mm 3 mps 757 mmHg 11%
    22:00 +30°C° 0 mm 2 mps 757 mmHg 12%
    23:00 +29°C° 0 mm 2 mps 757 mmHg 12%

    Day after tomorrow, 20 February, Wednesday

    Time Temperature Precipitation Wind Pressure Humidity
    00:00 +28°C° 0 mm 2 mps 757 mmHg 12%
    01:00 +27°C° 0 mm 2 mps 757 mmHg 13%
    02:00 +26°C° 0 mm 2 mps 756 mmHg 13%
    03:00 +26°C° 0 mm 2 mps 756 mmHg 14%
    04:00 +25°C° 0 mm 2 mps 756 mmHg 14%
    05:00 +24°C° 0 mm 2 mps 756 mmHg 15%
    06:00 +25°C° 0 mm 2 mps 757 mmHg 14%
    07:00 +26°C° 0 mm 2 mps 758 mmHg 14%
    08:00 +27°C° 0 mm 1 mps 758 mmHg 13%
    09:00 +30°C° 0 mm 2 mps 758 mmHg 11%
    10:00 +32°C° 0 mm 2 mps 758 mmHg 8%
    11:00 +36°C° 0 mm 2 mps 758 mmHg 6%
    12:00 +38°C° 0 mm 2 mps 757 mmHg 6%
    13:00 +39°C° 0 mm 1 mps 756 mmHg 6%
    14:00 +41°C° 0 mm 1 mps 755 mmHg 6%
    15:00 +40°C° 0 mm 1 mps 755 mmHg 7%
    16:00 +40°C° 0 mm 1 mps 755 mmHg 7%
    17:00 +39°C° 0 mm 1 mps 755 mmHg 8%
    18:00 +37°C° 0 mm 1 mps 756 mmHg 9%
    19:00 +36°C° 0 mm 2 mps 756 mmHg 10%
    20:00 +34°C° 0 mm 2 mps 757 mmHg 12%
    21:00 +33°C° 0 mm 3 mps 757 mmHg 15%
    22:00 +32°C° 0 mm 4 mps 758 mmHg 18%
    23:00 +30°C° 0 mm 4 mps 758 mmHg 21%

    21 February, Thursday

    Time Temperature Precipitation Wind Pressure Humidity
    00:00 +30°C° 0 mm 4 mps 757 mmHg 19%
    01:00 +29°C° 0 mm 4 mps 757 mmHg 18%
    02:00 +29°C° 0 mm 4 mps 757 mmHg 17%
    03:00 +28°C° 0 mm 3 mps 757 mmHg 18%
    04:00 +27°C° 0 mm 2 mps 757 mmHg 20%
    05:00 +26°C° 0 mm 2 mps 757 mmHg 21%
    06:00 +27°C° 0 mm 2 mps 758 mmHg 19%
    07:00 +28°C° 0 mm 3 mps 758 mmHg 17%
    08:00 +29°C° 0 mm 3 mps 759 mmHg 15%
    09:00 +33°C° 0 mm 3 mps 759 mmHg 13%
    10:00 +36°C° 0 mm 3 mps 759 mmHg 10%
    11:00 +40°C° 0 mm 4 mps 759 mmHg 7%
    12:00 +40°C° 0 mm 3 mps 758 mmHg 7%
    13:00 +42°C° 0 mm 3 mps 757 mmHg 7%
    14:00 +43°C° 0 mm 3 mps 756 mmHg 7%
    15:00 +42°C° 0 mm 2 mps 756 mmHg 7%
    16:00 +42°C° 0 mm 2 mps 756 mmHg 7%
    17:00 +41°C° 0 mm 2 mps 756 mmHg 7%
    18:00 +39°C° 0 mm 2 mps 757 mmHg 9%
    19:00 +36°C° 0 mm 1 mps 757 mmHg 10%
    20:00 +34°C° 0 mm 1 mps 758 mmHg 11%
    21:00 +33°C° 0 mm 1 mps 759 mmHg 12%
    22:00 +32°C° 0 mm 2 mps 759 mmHg 14%
    23:00 +30°C° 0 mm 3 mps 759 mmHg 15%

    22 February, Friday

    Time Temperature Precipitation Wind Pressure Humidity
    00:00 +29°C° 0 mm 3 mps 759 mmHg 16%
    01:00 +28°C° 0 mm 2 mps 759 mmHg 17%
    02:00 +27°C° 0 mm 2 mps 758 mmHg 18%
    03:00 +27°C° 0 mm 2 mps 758 mmHg 18%
    04:00 +26°C° 0 mm 2 mps 758 mmHg 18%
    05:00 +26°C° 0 mm 2 mps 758 mmHg 18%
    06:00 +27°C° 0 mm 3 mps 759 mmHg 16%
    07:00 +28°C° 0 mm 3 mps 759 mmHg 15%
    08:00 +30°C° 0 mm 4 mps 759 mmHg 13%
    09:00 +34°C° 0 mm 4 mps 759 mmHg 11%
    10:00 +37°C° 0 mm 4 mps 759 mmHg 9%
    11:00 +41°C° 0 mm 5 mps 759 mmHg 7%
    12:00 +42°C° 0 mm 4 mps 758 mmHg 7%
    13:00 +43°C° 0 mm 4 mps 757 mmHg 7%
    14:00 +45°C° 0 mm 4 mps 756 mmHg 6%
    15:00 +44°C° 0 mm 4 mps 756 mmHg 6%
    16:00 +44°C° 0 mm 4 mps 756 mmHg 6%
    17:00 +43°C° 0 mm 3 mps 755 mmHg 7%
    18:00 +40°C° 0 mm 3 mps 756 mmHg 7%
    19:00 +38°C° 0 mm 3 mps 757 mmHg 8%
    20:00 +36°C° 0 mm 2 mps 758 mmHg 9%
    21:00 +35°C° 0 mm 3 mps 758 mmHg 10%
    22:00 +34°C° 0 mm 4 mps 758 mmHg 10%
    23:00 +33°C° 0 mm 4 mps 758 mmHg 11%

    23 February, Saturday

    Time Temperature Precipitation Wind Pressure Humidity
    00:00 +32°C° 0 mm 4 mps 758 mmHg 12%
    01:00 +30°C° 0 mm 4 mps 757 mmHg 12%
    02:00 +28°C° 0 mm 4 mps 757 mmHg 13%
    03:00 +28°C° 0 mm 4 mps 757 mmHg 13%
    04:00 +27°C° 0 mm 3 mps 757 mmHg 14%
    05:00 +27°C° 0 mm 3 mps 758 mmHg 14%
    06:00 +28°C° 0 mm 4 mps 758 mmHg 13%
    07:00 +28°C° 0 mm 4 mps 758 mmHg 12%
    08:00 +29°C° 0 mm 4 mps 759 mmHg 11%
    09:00 +33°C° 0 mm 5 mps 759 mmHg 10%
    10:00 +36°C° 0 mm 5 mps 759 mmHg 8%
    11:00 +40°C° 0 mm 5 mps 758 mmHg 6%
    12:00 +41°C° 0 mm 5 mps 757 mmHg 6%
    13:00 +43°C° 0 mm 5 mps 756 mmHg 6%
    14:00 +45°C° 0 mm 5 mps 755 mmHg 6%
    15:00 +45°C° 0 mm 5 mps 755 mmHg 6%
    16:00 +43°C° 0 mm 5 mps 755 mmHg 6%
    17:00 +43°C° 0 mm 4 mps 755 mmHg 7%
    18:00 +40°C° 0 mm 4 mps 756 mmHg 8%
    19:00 +37°C° 0 mm 3 mps 756 mmHg 9%
    20:00 +35°C° 0 mm 2 mps 757 mmHg 10%
    21:00 +34°C° 0 mm 3 mps 757 mmHg 11%
    22:00 +33°C° 0 mm 3 mps 757 mmHg 12%
    23:00 +33°C° 0 mm 3 mps 758 mmHg 12%
    Show more